STARLINK-3754, 52350

Orbit data source: Space-Track

STARLINK-3754, 52350 is a payload satellite owned by SpaceX/Seattle (US) in LEO that was launched on Fri, 29 Apr 2022 UTC via an FALCON 9 launch vehicle from the Air Force Eastern Test Range (AFETR). Payload-class satellites include a variety of spacecraft equipped with specific instruments for various scientific and technological missions. These include communications satellites like Starlink; space stations such as the ISS; scientific satellites like the Hubble; Earth observation satellites from companies like Planet Labs, Umbra, and HawkEye 360; GPS; miniature CubeSats for education and research; and military/defense satellites.

Loading next visibility...
Identifier
52350, 2022-045V
Orbit
LEO
Country
Flag of USUS
Related business
Manufacturer
SpaceX/Seattle
Mission
Operational Commercial Communications
Bus & Motor
STARLINK, Unknown motor
Mass
297 kg wet, ~275 kg dry
Launch date (UTC)
2022-04-29 (4 years ago)
Launch vehicle
FALCON 9
Launch site
Air Force Eastern Test Range (AFETR)
Object type
Payload
Rocket body
Debris
Shape & HBR
Box + 1 Pan, 10.1 m
Radar Cross Section
11.087 m², Large (>1 m²)

Expand to show TLE details & history
Last TLE update: 2 days ago

TLE from 2 days ago
0 STARLINK-3754
1 52350U 22045V   26171.16967802  .00000571  00000-0  53949-4 0  9991
2 52350  53.1606  98.9586 0001489  93.6604 266.4558 15.08833959231253
Epoch: 2026-06-20T04:04Z
TLE epoch observation values (Epoch: 2026-06-20T04:04:20.180Z)
Latitude
-0.00002°
Longitude
129.48635°
Altitude
540.717 km
Speed
7.593 km/s
True Right ascension
06h 35m 50s
True Declination
0° 00' 00"
Sunlit
Object was in daylight at epoch
Visualization orbit readout
Latitude
Unknown
Longitude
Unknown
Altitude
Unknown
Speed
Unknown
Apparent Right ascension
Unknown
Apparent Declination
Unknown
Sunlit
N/A
Visualization observer readout
Local Sidereal Time
21:42:30
Azimuth
Unknown
Elevation
Unknown
Doppler factor
Unknown
Orbital elements
Apogee altitude
541.046 km
Perigee altitude
538.986 km
Semi-major axis
6,918.153 km
Eccentricity
0.00015
Inclination
53.1606°
RAAN
98.9586°
Arg. of periapsis
93.6604°
True anomaly
266.43877°
Mean anomaly
266.4558°
Eccentric anomaly
266.44729°
Mean motion
3.77188 °/min
Orbital period
95.44 mins
BSTAR
0.000053949
Loading maneuver chart data...
Computing Atmospheric mass density...
Loading historical data...
Loading historical data...
Loading historical data...
Loading historical data...
Loading historical data...
Loading historical data...
Loading historical data...

Documentation

Showing up to 5 results
|